Stations météo

réclame
Mon MeteoGroup
Guernsey, Grande-Bretagne (3894): Température de l'air & dewpoint: 11.02.2019 14:00:00 - 17.02.2019 14:00:00 (GMT)Guernsey, Grande-Bretagne (3894): Température de l'air -20cm & Température de l'air -100cm: 11.02.2019 14:00:00 - 17.02.2019 14:00:00 (GMT)Guernsey, Grande-Bretagne (3894): Vitesse du vent: 11.02.2019 14:00:00 - 17.02.2019 14:00:00 (GMT)Guernsey, Grande-Bretagne (3894): Direction du vent: 11.02.2019 14:00:00 - 17.02.2019 14:00:00 (GMT)Guernsey, Grande-Bretagne (3894): reduced air pressure: 11.02.2019 14:00:00 - 17.02.2019 14:00:00 (GMT)Guernsey, Grande-Bretagne (3894): visibility: 11.02.2019 14:00:00 - 17.02.2019 14:00:00 (GMT)Guernsey, Grande-Bretagne (3894): Quantités de précipitations: 11.02.2019 14:00:00 - 17.02.2019 14:00:00 (GMT)
Date & Time tt [°C] td [°C] tt -20cm [°C] tt -100cm [°C] ff [km/h] ff [knt] dd ppp [hPa] vv [km] rr [mm]
17.02.2019 14:00:00 10,2 9,2 - - 18 10 S 1016,2 10 -
17.02.2019 13:00:00 10,1 8,9 - - 21 11 S 1016,0 10 -
17.02.2019 12:00:00 9,8 8,3 - - 21 11 S 1016,4 10 -
17.02.2019 11:00:00 10,0 8,1 - - 18 10 S 1016,1 15 -
17.02.2019 10:00:00 10,0 8,2 - - 24 13 S 1015,8 15 -
17.02.2019 09:00:00 9,3 7,8 8,0 8,7 26 14 SSE 1015,4 10 -
17.02.2019 08:00:00 8,2 7,0 - - 22 12 SSE 1015,1 15 -
17.02.2019 07:00:00 7,9 6,5 - - 22 12 SSE 1015,0 10 -
17.02.2019 06:00:00 8,3 6,4 - - 22 12 SSE 1014,8 10 -
17.02.2019 05:00:00 8,3 6,7 - - 22 12 SSE 1015,5 10 -
17.02.2019 04:00:00 8,5 6,7 - - 21 11 SSE 1015,8 25 -
17.02.2019 03:00:00 8,4 6,3 - - 22 12 SSE 1016,6 10 -
17.02.2019 02:00:00 8,2 6,7 - - 18 10 SSE 1017,5 10 -
17.02.2019 01:00:00 8,5 7,0 - - 21 11 SSE 1018,6 10 -
17.02.2019 00:00:00 8,5 7,1 - - 18 10 SE 1019,4 10 0,0
16.02.2019 23:00:00 9,1 7,2 - - 18 10 SSE 1020,0 10 -
16.02.2019 22:00:00 9,0 7,3 - - 21 11 SSE 1020,5 10 -
16.02.2019 21:00:00 9,0 7,3 - - 21 11 SSE 1021,0 10 -
16.02.2019 20:00:00 9,4 7,5 - - 21 11 SSE 1021,2 10 -
16.02.2019 19:00:00 9,5 7,9 - - 18 10 SE 1022,0 10 -
16.02.2019 18:00:00 8,8 8,3 - - 22 12 SSE 1021,7 9 -
16.02.2019 17:00:00 9,2 8,9 - - 18 10 SSE 1021,8 10 -
16.02.2019 16:00:00 9,3 9,3 - - 16 9 SSE 1022,4 0,8 -
16.02.2019 15:00:00 9,3 9,3 - - 16 9 SSE 1023,1 0,2 -
16.02.2019 14:00:00 9,7 9,6 - - 15 8 SSE 1023,7 1,2 -
16.02.2019 13:00:00 9,8 9,8 - - 16 9 S 1024,4 0,4 -
16.02.2019 12:00:00 9,6 9,5 - - 16 9 S 1025,0 8 0,0
16.02.2019 11:00:00 9,7 9,5 - - 18 10 S 1025,1 12 -
16.02.2019 10:00:00 9,7 9,6 - - 18 10 S 1024,7 10 -
16.02.2019 09:00:00 9,5 9,5 7,9 8,7 15 8 S 1025,0 6 -
16.02.2019 08:00:00 9,6 9,5 - - 13 7 S 1024,5 1,7 -
16.02.2019 07:00:00 9,6 9,5 - - 16 9 SW 1024,2 6 -
16.02.2019 06:00:00 9,5 9,4 - - 18 10 SW 1024,5 4,0 0,0
16.02.2019 05:00:00 9,3 9,3 - - 15 8 SW 1024,4 1,8 -
16.02.2019 04:00:00 9,2 8,9 - - 22 12 SW 1024,1 6 -
16.02.2019 03:00:00 8,9 7,6 - - 18 10 SSW 1024,4 10 -
16.02.2019 02:00:00 9,0 7,2 - - 15 8 SSW 1024,8 10 -
16.02.2019 01:00:00 8,5 6,5 - - 15 8 SSW 1025,2 10 -
16.02.2019 00:00:00 8,5 6,9 - - 18 10 SSW 1025,1 10 0,0
15.02.2019 23:00:00 8,9 7,2 - - 15 8 SSW 1024,9 10 -
15.02.2019 22:00:00 9,2 7,6 - - 16 9 SSW 1025,4 10 -
15.02.2019 21:00:00 10,0 7,2 - - 16 9 S 1025,2 10 -
15.02.2019 20:00:00 10,5 6,7 - - 16 9 S 1025,1 20 -
15.02.2019 19:00:00 11,4 6,0 - - 16 9 SSE 1024,9 10 -
15.02.2019 18:00:00 11,0 5,9 - - 16 9 S 1025,0 10 0,0
15.02.2019 17:00:00 10,8 6,4 - - 18 10 SSE 1024,7 10 -
15.02.2019 16:00:00 11,1 6,6 - - 16 9 SSE 1024,8 10 -
15.02.2019 15:00:00 10,4 6,6 - - 21 11 SSE 1025,0 10 -
15.02.2019 14:00:00 10,2 6,8 - - 24 13 SSE 1025,5 10 -
15.02.2019 13:00:00 10,6 7,0 - - 22 12 SSE 1026,0 10 -
15.02.2019 12:00:00 10,4 6,6 - - 24 13 SSE 1026,7 15 0,0
15.02.2019 11:00:00 10,0 6,3 - - 22 12 SSE 1027,1 10 -
15.02.2019 10:00:00 9,4 6,4 - - 21 11 SSE 1027,6 10 -
15.02.2019 09:00:00 8,4 6,4 7,4 8,7 21 11 SSE 1027,6 10 -
15.02.2019 08:00:00 6,9 5,5 - - 21 11 SSE 1027,6 10 -
15.02.2019 07:00:00 7,2 5,3 - - 18 10 SE 1027,2 10 -
15.02.2019 06:00:00 7,1 5,1 - - 21 11 SSE 1027,3 10 0,0
15.02.2019 05:00:00 6,9 4,7 - - 21 11 SSE 1027,6 10 -
15.02.2019 04:00:00 7,1 5,2 - - 16 9 SE 1027,5 10 -
15.02.2019 03:00:00 7,3 5,7 - - 16 9 SE 1028,0 20 -
15.02.2019 02:00:00 6,8 5,6 - - 13 7 SE 1028,1 25 -
15.02.2019 01:00:00 7,4 5,6 - - 15 8 SE 1028,3 10 -
15.02.2019 00:00:00 7,4 5,2 - - 15 8 SE 1028,4 10 0,0
14.02.2019 23:00:00 7,5 5,4 - - 16 9 SSE 1028,7 10 -
14.02.2019 22:00:00 7,8 6,0 - - 16 9 SE 1028,7 30 -
14.02.2019 21:00:00 8,0 5,7 - - 16 9 SSE 1028,6 10 -
14.02.2019 20:00:00 8,7 4,6 - - 21 11 SSE 1028,6 30 -
14.02.2019 19:00:00 9,3 4,1 - - 24 13 SE 1028,6 30 -
14.02.2019 18:00:00 9,7 3,6 - - 24 13 SE 1028,6 10 0,0
14.02.2019 17:00:00 9,4 4,1 - - 22 12 SE 1028,5 10 -
14.02.2019 16:00:00 9,5 4,5 - - 22 12 SE 1028,7 10 -
14.02.2019 15:00:00 9,5 4,2 - - 22 12 SE 1029,1 10 -
14.02.2019 14:00:00 9,6 4,2 - - 21 11 SE 1029,5 25 -
14.02.2019 13:00:00 9,1 4,8 - - 21 11 SE 1030,2 10 -
14.02.2019 12:00:00 8,5 5,2 - - 22 12 SE 1031,2 10 0,0
14.02.2019 11:00:00 7,9 5,1 - - 26 14 SE 1031,5 10 -
14.02.2019 10:00:00 7,6 5,3 - - 22 12 SE 1031,5 10 -
14.02.2019 09:00:00 6,9 4,9 7,2 8,7 18 10 SE 1031,8 10 -
14.02.2019 08:00:00 6,1 4,4 - - 16 9 SE 1031,5 10 -
14.02.2019 07:00:00 5,7 4,4 - - 16 9 SE 1031,2 10 -
14.02.2019 06:00:00 5,7 4,4 - - 16 9 SSE 1031,0 10 0,0
14.02.2019 05:00:00 5,8 4,3 - - 15 8 SSE 1031,4 10 -
14.02.2019 04:00:00 6,3 4,1 - - 15 8 S 1031,4 10 -
14.02.2019 03:00:00 6,8 3,7 - - 21 11 SSE 1031,5 10 -
14.02.2019 02:00:00 7,1 4,3 - - 24 13 SSE 1021,6 10 -
14.02.2019 01:00:00 7,3 4,8 - - 22 12 SSE 1032,1 10 -
14.02.2019 00:00:00 7,3 4,5 - - 18 10 SSE 1032,3 10 0,0
13.02.2019 23:00:00 7,3 4,9 - - 21 11 SSE 1032,4 10 -
13.02.2019 22:00:00 7,0 4,6 - - 22 12 SSE 1032,2 35 -
13.02.2019 21:00:00 7,5 4,7 - - 18 10 SE 1032,2 10 -
13.02.2019 20:00:00 7,3 4,6 - - 16 9 SE 1032,0 10 -
13.02.2019 19:00:00 7,3 4,3 - - 15 8 ESE 1032,6 35 -
13.02.2019 18:00:00 6,8 4,9 - - 16 9 SSE 1032,3 10 0,0
13.02.2019 17:00:00 7,6 4,9 - - 13 7 SSE 1032,5 10 -
13.02.2019 16:00:00 8,5 4,4 - - 24 13 SSE 1032,5 30 -
13.02.2019 15:00:00 8,7 5,2 - - 22 12 SSE 1032,7 10 -
13.02.2019 14:00:00 8,8 5,5 - - 22 12 SSE 1033,1 10 -
13.02.2019 13:00:00 8,9 5,2 - - 22 12 SSE 1033,4 10 -
13.02.2019 12:00:00 9,2 5,7 - - 26 14 SSE 1033,6 10 0,0
13.02.2019 11:00:00 8,2 5,7 - - 24 13 S 1033,9 10 -
13.02.2019 10:00:00 7,2 5,6 - - 22 12 SSE 1033,6 10 -
13.02.2019 09:00:00 7,4 5,2 8,2 8,7 24 13 S 1033,7 10 -
13.02.2019 08:00:00 6,8 5,4 - - 21 11 S 1034,0 40 -
13.02.2019 07:00:00 7,0 5,6 - - 16 9 S 1033,8 10 -
13.02.2019 06:00:00 7,1 6,0 - - 18 10 S 1033,7 10 -
13.02.2019 05:00:00 7,1 6,2 - - 15 8 S 1033,9 10 -
13.02.2019 04:00:00 7,1 6,0 - - 13 7 S 1034,3 10 -
13.02.2019 03:00:00 7,3 6,2 - - 13 7 S 1034,6 10 -
13.02.2019 02:00:00 7,0 6,1 - - 13 7 S 1034,4 10 -
13.02.2019 01:00:00 6,3 5,8 - - 11 6 SSE 1034,6 10 -
13.02.2019 00:00:00 6,5 5,7 - - 11 6 SSE 1034,8 10 0,0
12.02.2019 23:00:00 6,2 5,0 - - 8 4 SE 1035,1 10 -
12.02.2019 22:00:00 6,7 6,2 - - 13 7 SSE 1035,3 10 -
12.02.2019 21:00:00 6,5 6,2 - - 13 7 SSE 1035,3 10 -
12.02.2019 20:00:00 6,3 6,2 - - 9 5 SSE 1035,4 10 -
12.02.2019 19:00:00 7,1 6,7 - - 9 5 SSE 1035,6 10 -
12.02.2019 18:00:00 7,0 6,3 - - 8 4 SSE 1035,4 10 0,0
12.02.2019 17:00:00 8,7 7,2 - - 9 5 S 1034,7 10 -
12.02.2019 16:00:00 9,8 7,2 - - 11 6 S 1034,8 10 -
12.02.2019 15:00:00 10,3 7,2 - - 13 7 SW 1035,0 10 -
12.02.2019 14:00:00 10,3 7,2 - - 15 8 SW 1035,0 10 -
12.02.2019 13:00:00 9,6 7,0 - - 16 9 SSW 1035,0 10 -
12.02.2019 12:00:00 9,7 7,5 - - 16 9 SSW 1035,6 10 0,0
12.02.2019 11:00:00 8,7 7,5 - - 13 7 SW 1035,5 25 -
12.02.2019 10:00:00 8,5 7,7 - - 13 7 SW 1035,5 10 -
12.02.2019 09:00:00 7,8 7,3 7,2 8,7 13 7 SW 1035,0 10 -
12.02.2019 08:00:00 7,5 7,1 - - 13 7 SW 1034,6 20 -
12.02.2019 07:00:00 7,6 7,3 - - 11 6 SW 1034,3 40 -
12.02.2019 06:00:00 6,6 6,3 - - 11 6 SSW 1034,3 10 0,0
12.02.2019 05:00:00 6,2 5,5 - - 11 6 SSW 1034,1 55 -
12.02.2019 04:00:00 7,0 5,6 - - 11 6 SSW 1034,5 10 -
12.02.2019 03:00:00 5,4 4,2 - - 11 6 SSW 1034,1 10 -
12.02.2019 02:00:00 5,3 3,8 - - 11 6 SSW 1034,4 55 -
12.02.2019 01:00:00 5,2 3,7 - - 9 5 SSW 1034,5 10 -
12.02.2019 00:00:00 5,4 3,8 - - 9 5 S 1034,2 10 0,0
11.02.2019 23:00:00 4,7 3,7 - - 8 4 S 1034,3 10 -
11.02.2019 22:00:00 4,7 2,9 - - 8 4 S 1033,7 10 -
11.02.2019 21:00:00 4,2 2,4 - - 4 2 - 1033,6 10 -
11.02.2019 20:00:00 4,5 2,7 - - 4 2 - 1033,2 10 -
11.02.2019 19:00:00 4,2 2,5 - - 5 3 - 1032,4 10 -
11.02.2019 18:00:00 6,2 3,5 - - 4 2 - 1032,1 10 0,0
11.02.2019 17:00:00 6,8 3,5 - - 8 4 N 1031,4 50 -
11.02.2019 16:00:00 8,3 3,8 - - 11 6 N 1031,0 10 -
11.02.2019 15:00:00 8,4 3,5 - - 13 7 NNW 1030,0 10 -
11.02.2019 14:00:00 9,4 3,2 - - 18 10 NNW 1029,1 50 -

tt = Température de l'air
td = dewpoint
tt -20cm = Température de l'air -20cm
tt -100cm = Température de l'air -100cm
ff = Vitesse du vent
dd = Direction du vent
ppp = reduced air pressure
vv = visibility
rr = Quantités de précipitations

stations d'obs. à proximité